[[{"header":{"parameterUnit":"m.s-1","parameterCategory":1,"la1":30.2991,"la2":30.254,"lo1":-89.0895,"lo2":-89.0444,"dy":0.0017,"dx":0.0017,"nx":28,"ny":28,"refTime":"2025-08-23T03:00:00:Z","depth":0,"parameterNumber":2,"parameterNumberName":"U-component_of_WINDS"},"data":[0,0,0,0,0,0,0,0,0,0,0,0,0,0,0,0,0,0,0,0,0,0,0,0,0,0,0,0,0,0,0,0,0,0,0,0,0,0,0,0,0,0,0,0,0,0,0,0,0,0,0,0,0,0,0,0,0,0,3.3299,3.33,0,3.3393,3.3394,3.3395,3.3309,3.3305,3.3302,3.3299,3.3398,3.3403,3.3409,0,0,0,0,0,0,0,0,0,0,0,0,0,3.305,3.3055,3.3299,3.33,3.3301,3.3392,3.3394,3.3395,3.3309,3.3305,3.3301,3.3297,3.3396,3.3403,3.341,0,0,0,0,0,0,0,0,0,0,0,0,0,3.3152,3.3056,3.3299,3.3269,3.3268,3.3392,3.3394,3.3395,3.331,3.3305,3.33,3.3295,3.3393,3.3402,3.3411,3.357,0,0,3.3438,3.3441,0,0,0,0,0,0,0,0,3.3147,3.3162,3.3273,3.3272,3.327,3.3334,3.3342,3.3454,3.3312,3.3294,3.3298,3.3292,3.3381,3.339,3.3419,3.3574,3.3579,3.3438,3.3444,3.3448,3.345,0,0,0,0,0,0,0,3.314,3.3157,3.3336,3.3274,3.3273,3.3253,3.3262,3.3363,3.3366,3.3295,3.3289,3.3301,3.3379,3.3411,3.3421,3.358,3.3438,3.3446,3.3451,3.3455,3.3873,3.3878,0,0,0,0,0,0,3.3135,3.3152,3.3333,3.3339,3.3194,3.3262,3.3271,3.3319,3.3364,3.3366,3.3306,3.3297,3.3399,3.3411,3.3424,3.3615,3.3447,3.3456,3.3461,3.3867,3.3874,3.3881,0,0,0,0,0,0,3.313,3.3152,3.3329,3.3244,3.3265,3.3271,3.3325,3.3323,3.3355,3.3372,3.3373,3.3338,3.3395,3.3412,3.3535,3.3617,3.346,3.3468,3.386,3.3869,3.3877,3.3997,0,0,0,0,0,0,3.3123,3.3151,3.321,3.3246,3.327,3.3437,3.333,3.3329,3.337,3.336,3.3402,3.3404,3.3392,3.3522,3.3543,3.3627,3.3475,3.3853,3.3864,3.3875,3.3986,3.4009,3.4028,0,0,0,0,0,3.3115,3.324,3.3214,3.3236,3.3344,3.3442,3.3456,3.3438,3.3377,3.3438,3.3449,3.3403,3.3605,3.3535,3.3559,3.3646,3.3848,3.3861,3.3874,3.3976,3.4004,3.4028,0,0,0,0,0,0,3.3214,3.3244,3.3215,3.3355,3.3397,3.3427,3.3502,3.3468,3.3528,3.3516,3.3492,3.3503,3.3633,3.3651,3.3573,3.3803,3.3717,3.3735,3.3786,3.3813,3.3834,3.3827,3.3482,0,0,0,0,0,3.3253,3.3329,3.3351,3.3473,3.3495,3.3496,3.3538,3.3521,3.3563,3.358,3.36,3.3644,3.3718,3.3766,3.3834,3.3988,3.3997,3.406,3.4081,3.4099,3.4115,3.42,3.4229,3.3923,3.3923,3.3923,0,0,3.3333,3.3358,3.3408,3.3494,3.3524,3.3605,3.3511,3.36,3.366,3.3594,3.3711,3.3728,3.3775,3.3915,3.3977,3.3934,3.4202,3.4115,3.4129,3.4136,3.4217,3.4246,3.4271,3.3932,3.3931,3.3929,0,0,3.352,3.3546,3.3651,3.3684,3.373,3.373,3.3756,3.3792,3.3801,3.3918,3.3871,3.3943,3.4069,3.4105,3.4141,3.4345,3.4305,3.4368,3.4479,3.4563,3.4587,3.4608,3.4682,3.4709,3.4384,3.4384,3.4384,0,3.3614,3.3732,3.371,3.3803,3.3843,3.3787,3.3895,3.3928,3.3995,3.4025,3.3975,3.4134,3.4162,3.431,3.436,3.439,3.442,3.4363,3.4585,3.4606,3.4625,3.4696,3.4724,3.4391,3.4391,3.439,3.4389,0,3.3846,3.3929,3.4009,3.4075,3.4124,3.4224,3.4219,3.4272,3.4252,3.4257,3.4379,3.4411,3.4486,3.4519,3.45,3.4666,3.4638,3.4588,3.45,3.4662,3.4729,3.4755,3.4402,3.4399,3.4397,3.4395,0,0,3.4097,3.4151,3.4181,3.4211,3.426,3.4325,3.4423,3.4496,3.4542,3.4591,3.4675,3.4784,3.4738,3.4778,3.4763,3.4836,3.4998,3.4776,3.4777,3.4818,3.5185,3.5224,3.5255,3.4972,3.4977,3.4981,3.5182,0,3.4287,3.4457,3.4442,3.4604,3.4682,3.4631,3.4717,3.4757,3.4766,3.4835,3.4844,3.4923,3.4855,3.488,3.4949,3.4963,3.5072,3.4948,3.5051,3.5055,3.5042,3.529,3.533,3.5518,3.5207,3.5212,3.5215,0,3.4531,3.4589,3.4759,3.4797,3.4829,3.4907,3.4973,3.5039,3.5085,3.5086,3.5132,3.5105,3.5207,3.5117,3.5258,3.5175,3.5216,3.523,3.5237,3.5246,3.5145,3.5307,3.5577,3.5606,3.5255,3.5252,3.5249,0,3.47,3.4819,3.4937,3.4964,3.5012,3.5068,3.5091,3.5131,3.5177,3.5235,3.5265,3.5335,3.5374,3.543,3.5424,3.5359,3.5568,3.5477,3.5574,3.5574,3.562,3.5618,3.5902,3.5646,3.5645,3.5645,3.5644,0,3.4914,3.502,3.5014,3.5086,3.5205,3.5187,3.5305,3.5321,3.5358,3.5434,3.5395,3.5467,3.5454,3.5527,3.5523,3.5642,3.5659,3.5665,3.5663,3.5669,3.5669,3.5696,3.5683,3.5652,3.5651,3.5649,3.5648,0,3.5122,3.5121,3.5246,3.5282,3.5293,3.5379,3.541,3.548,3.5486,3.5583,3.5605,3.5615,3.57,3.5699,3.5795,3.5792,3.5939,3.5921,3.5923,3.592,3.6017,3.6009,3.633,3.6372,3.6088,3.609,3.6093,0,3.5258,3.5339,3.5384,3.5431,3.5458,3.5535,3.5582,3.5568,3.5618,3.5678,3.5741,3.5822,3.5885,3.6023,3.604,3.6115,3.6099,3.6207,3.611,3.6115,3.6103,3.6099,3.6108,3.6226,3.6229,3.6232,3.6234,0,3.5502,3.5499,3.5566,3.5636,3.5692,3.5746,3.5795,3.5837,3.5829,3.5888,3.5974,3.6023,3.6122,3.6204,3.6276,3.6301,3.6268,3.6264,3.6291,3.6299,3.6297,3.6301,3.5976,3.6257,3.6255,3.6253,3.6252,3.6251,3.568,3.575,3.5793,3.587,3.5906,3.5954,3.6022,3.6037,3.6107,3.6186,3.6174,3.6271,3.6317,3.641,3.6442,3.6519,3.6481,3.6519,3.6529,3.6539,3.655,3.6284,3.6531,3.6531,3.653,3.653,3.6529,0,3.5923,3.5948,3.602,3.609,3.6152,3.6114,3.6168,3.6223,3.6307,3.6353,3.6417,3.6517,3.6596,3.662,3.6698,3.6755,3.6742,3.6776,3.6772,3.6779,3.6579,3.6548,3.6785,3.6785,3.6785,3.6785,3.6785,3.6785,3.6057,3.6174,3.6176,3.6312,3.6336,3.643,3.6464,3.6509,3.6545,3.6658,3.6724,3.6738,3.6776,3.6857,3.6929,3.6934,3.6965,3.7006,3.7005,3.6818,3.6792,3.6768,3.674,3.7013,3.7013,3.7199,3.7201,3.7202]},{"header":{"parameterUnit":"m.s-1","parameterCategory":1,"la1":30.2991,"la2":30.254,"lo1":-89.0895,"lo2":-89.0444,"dy":0.0017,"dx":0.0017,"nx":28,"ny":28,"refTime":"2025-08-23T03:00:00:Z","depth":0,"parameterNumber":3,"parameterNumberName":"V-component_of_WINDS"},"data":[0,0,0,0,0,0,0,0,0,0,0,0,0,0,0,0,0,0,0,0,0,0,0,0,0,0,0,0,0,0,0,0,0,0,0,0,0,0,0,0,0,0,0,0,0,0,0,0,0,0,0,0,0,0,0,0,0,0,-1.3701,-1.3702,0,-1.3756,-1.3756,-1.3757,-1.379,-1.379,-1.379,-1.379,-1.3846,-1.3847,-1.3849,0,0,0,0,0,0,0,0,0,0,0,0,0,-1.3625,-1.3626,-1.3701,-1.3702,-1.3702,-1.3756,-1.3756,-1.3757,-1.379,-1.379,-1.379,-1.379,-1.3846,-1.3847,-1.3849,0,0,0,0,0,0,0,0,0,0,0,0,0,-1.3666,-1.3626,-1.3701,-1.3725,-1.3728,-1.3755,-1.3756,-1.3757,-1.379,-1.379,-1.379,-1.379,-1.3845,-1.3847,-1.3849,-1.3857,0,0,-1.3855,-1.3856,0,0,0,0,0,0,0,0,-1.3664,-1.3669,-1.3721,-1.3723,-1.3727,-1.3766,-1.375,-1.3791,-1.379,-1.3766,-1.379,-1.3791,-1.3819,-1.3823,-1.3833,-1.3859,-1.3862,-1.3855,-1.3856,-1.3857,-1.3858,0,0,0,0,0,0,0,-1.3661,-1.3667,-1.3723,-1.3722,-1.3725,-1.3733,-1.3739,-1.3758,-1.3791,-1.3768,-1.3771,-1.3777,-1.3821,-1.3831,-1.3835,-1.3862,-1.3855,-1.3857,-1.3858,-1.3859,-1.3897,-1.3897,0,0,0,0,0,0,-1.3654,-1.3664,-1.3721,-1.3724,-1.3695,-1.3734,-1.3741,-1.3753,-1.3791,-1.3797,-1.3777,-1.3778,-1.3828,-1.3832,-1.3837,-1.3848,-1.3857,-1.3859,-1.386,-1.3897,-1.3897,-1.3897,0,0,0,0,0,0,-1.3653,-1.3659,-1.3719,-1.3695,-1.3703,-1.3735,-1.3749,-1.3754,-1.3764,-1.3797,-1.3803,-1.3781,-1.3828,-1.3834,-1.3851,-1.385,-1.386,-1.3862,-1.3897,-1.3897,-1.3897,-1.387,0,0,0,0,0,0,-1.365,-1.3658,-1.3662,-1.3695,-1.3704,-1.3732,-1.3749,-1.3755,-1.3768,-1.377,-1.3803,-1.3808,-1.3829,-1.3848,-1.3853,-1.3853,-1.3863,-1.3898,-1.3897,-1.3897,-1.3871,-1.3868,-1.3866,0,0,0,0,0,-1.3647,-1.3652,-1.3662,-1.3668,-1.3709,-1.3732,-1.3738,-1.3761,-1.3768,-1.3771,-1.3792,-1.3807,-1.3849,-1.385,-1.3856,-1.3856,-1.3898,-1.3897,-1.3897,-1.3872,-1.3869,-1.3866,0,0,0,0,0,0,-1.3618,-1.3657,-1.3668,-1.3683,-1.3704,-1.3738,-1.3743,-1.3757,-1.3777,-1.3778,-1.3807,-1.3814,-1.3828,-1.3844,-1.3843,-1.3865,-1.3875,-1.3876,-1.3854,-1.3852,-1.3849,-1.3845,-1.3865,0,0,0,0,0,-1.3613,-1.3628,-1.3662,-1.3672,-1.3682,-1.371,-1.3721,-1.3737,-1.376,-1.3769,-1.3791,-1.3813,-1.3831,-1.3842,-1.3861,-1.3873,-1.3881,-1.3877,-1.3874,-1.3872,-1.3873,-1.388,-1.3878,-1.3895,-1.3895,-1.3895,0,0,-1.3603,-1.3626,-1.3634,-1.3666,-1.3684,-1.37,-1.3718,-1.3733,-1.3744,-1.3772,-1.3789,-1.3806,-1.3832,-1.3847,-1.3854,-1.386,-1.387,-1.3872,-1.387,-1.3871,-1.3879,-1.3877,-1.3876,-1.3895,-1.3895,-1.3895,0,0,-1.3593,-1.3612,-1.3622,-1.364,-1.3667,-1.3686,-1.3689,-1.372,-1.3732,-1.3751,-1.3771,-1.3785,-1.3816,-1.3833,-1.3846,-1.3842,-1.3857,-1.3848,-1.3836,-1.3843,-1.3841,-1.384,-1.3838,-1.3837,-1.3848,-1.3848,-1.3848,0,-1.3577,-1.3601,-1.3626,-1.364,-1.3653,-1.3679,-1.3689,-1.3705,-1.3737,-1.3745,-1.3752,-1.3791,-1.381,-1.3829,-1.3828,-1.3838,-1.3841,-1.3844,-1.384,-1.3839,-1.3838,-1.3836,-1.3836,-1.3846,-1.3846,-1.3847,-1.3847,0,-1.358,-1.3596,-1.3601,-1.3631,-1.3645,-1.3657,-1.3684,-1.3695,-1.371,-1.3728,-1.3746,-1.377,-1.3794,-1.38,-1.3814,-1.382,-1.3823,-1.3834,-1.3845,-1.3835,-1.3834,-1.3833,-1.3844,-1.3845,-1.3845,-1.3846,0,0,-1.3552,-1.3595,-1.3597,-1.361,-1.3642,-1.3655,-1.3668,-1.3691,-1.37,-1.3721,-1.3733,-1.3758,-1.3768,-1.3783,-1.38,-1.3806,-1.38,-1.3816,-1.3817,-1.3812,-1.3808,-1.3799,-1.3798,-1.3811,-1.3811,-1.3811,-1.3805,0,-1.3546,-1.3571,-1.3594,-1.361,-1.3625,-1.3649,-1.3661,-1.3682,-1.3699,-1.3714,-1.3733,-1.3751,-1.3763,-1.3772,-1.3779,-1.38,-1.38,-1.38,-1.3821,-1.3821,-1.3813,-1.3797,-1.3788,-1.3782,-1.3805,-1.3805,-1.3805,0,-1.3542,-1.3562,-1.358,-1.3609,-1.3617,-1.3627,-1.3649,-1.3664,-1.3687,-1.37,-1.3716,-1.3734,-1.3748,-1.3758,-1.3779,-1.3778,-1.3788,-1.38,-1.38,-1.3802,-1.3812,-1.3798,-1.3781,-1.3779,-1.3805,-1.3805,-1.3805,0,-1.3519,-1.355,-1.3565,-1.3576,-1.3611,-1.3617,-1.3632,-1.3657,-1.3669,-1.3689,-1.3697,-1.3718,-1.373,-1.3746,-1.3769,-1.3774,-1.3787,-1.3799,-1.3797,-1.3796,-1.3798,-1.3797,-1.3781,-1.3806,-1.3806,-1.3806,-1.3806,0,-1.3509,-1.3519,-1.3555,-1.3564,-1.3575,-1.3602,-1.3612,-1.363,-1.3651,-1.3663,-1.3686,-1.3697,-1.3727,-1.3742,-1.376,-1.3774,-1.378,-1.379,-1.3794,-1.3787,-1.3786,-1.3793,-1.3794,-1.3805,-1.3805,-1.3805,-1.3806,0,-1.3485,-1.351,-1.3527,-1.3559,-1.3567,-1.3574,-1.3602,-1.3611,-1.363,-1.3645,-1.365,-1.368,-1.3698,-1.3723,-1.375,-1.3762,-1.3773,-1.3781,-1.3765,-1.3768,-1.3764,-1.3764,-1.3751,-1.3751,-1.3776,-1.3776,-1.3776,0,-1.3477,-1.3485,-1.3518,-1.3528,-1.3542,-1.3558,-1.357,-1.3597,-1.3609,-1.3636,-1.3642,-1.3662,-1.368,-1.3708,-1.3732,-1.3752,-1.376,-1.3754,-1.3763,-1.3756,-1.3759,-1.3758,-1.3758,-1.3752,-1.3751,-1.3751,-1.3751,0,-1.346,-1.3471,-1.3488,-1.3509,-1.3524,-1.3542,-1.3561,-1.3567,-1.3598,-1.361,-1.3629,-1.3643,-1.367,-1.3689,-1.3713,-1.3728,-1.3744,-1.3748,-1.3748,-1.3741,-1.3731,-1.3735,-1.3758,-1.3748,-1.3748,-1.3748,-1.3748,-1.3749,-1.3443,-1.3451,-1.3475,-1.3493,-1.351,-1.3527,-1.3537,-1.3557,-1.3574,-1.3597,-1.3612,-1.363,-1.3654,-1.3687,-1.3702,-1.3716,-1.3723,-1.3724,-1.3724,-1.3723,-1.3721,-1.3729,-1.3721,-1.3721,-1.3721,-1.3721,-1.3721,0,-1.3426,-1.3442,-1.3459,-1.3485,-1.3499,-1.3513,-1.3535,-1.3545,-1.3561,-1.3582,-1.3599,-1.362,-1.3639,-1.3664,-1.3685,-1.3692,-1.37,-1.3697,-1.3696,-1.3699,-1.3714,-1.3711,-1.369,-1.369,-1.369,-1.369,-1.369,-1.369,-1.3418,-1.3432,-1.3447,-1.3469,-1.3486,-1.3504,-1.3515,-1.3531,-1.3548,-1.3571,-1.3587,-1.3603,-1.3625,-1.3648,-1.3666,-1.3673,-1.3679,-1.3673,-1.3682,-1.3695,-1.3698,-1.3701,-1.3698,-1.3675,-1.3675,-1.3666,-1.3666,-1.3666]}]]